Time,TemperatureF,DewpointF,PressureIn,WindDirection,WindDirectionDegrees,WindSpeedMPH,WindSpeedGustMPH,Humidity,HourlyPrecipIn,Conditions,Clouds,dailyrainin,SoftwareType,DateUTC
2013-01-04 00:03:00,59.0,58.0,30.16,ENE,70,3.0,4.0,97,0.00,,,-99.99,,2013-01-04 05:03:00,
2013-01-04 00:12:00,59.0,58.0,30.16,ENE,70,3.0,4.0,97,0.00,,,-99.99,,2013-01-04 05:12:00,
2013-01-04 00:22:00,59.0,58.0,30.16,NNE,15,0.0,6.0,97,0.00,,,-99.99,,2013-01-04 05:22:00,
2013-01-04 00:33:00,59.0,58.0,30.16,NNW,348,0.0,6.0,97,0.00,,,0.00,,2013-01-04 05:33:00,
2013-01-04 00:42:00,59.0,58.0,30.16,NNW,348,0.0,6.0,97,0.00,,,0.00,,2013-01-04 05:42:00,
2013-01-04 00:53:00,59.0,58.0,30.15,NE,38,1.0,5.0,97,0.00,,,0.00,,2013-01-04 05:53:00,
2013-01-04 01:02:00,59.0,58.0,30.16,NNE,15,1.0,7.0,97,0.00,,,0.00,,2013-01-04 06:02:00,
2013-01-04 01:12:00,59.0,58.0,30.16,NNE,15,1.0,7.0,97,0.00,,,0.00,,2013-01-04 06:12:00,
2013-01-04 01:22:00,59.0,58.0,30.16,North,5,0.0,3.0,97,0.00,,,0.00,,2013-01-04 06:22:00,
2013-01-04 01:33:00,59.0,58.0,30.15,NNE,19,0.0,3.0,97,0.00,,,0.00,,2013-01-04 06:33:00,
2013-01-04 01:42:00,59.0,58.0,30.15,NNE,19,0.0,3.0,97,0.00,,,0.00,,2013-01-04 06:42:00,
2013-01-04 01:52:00,58.0,57.0,30.15,NNE,26,0.0,4.0,97,0.00,,,0.00,,2013-01-04 06:52:00,
2013-01-04 02:02:00,58.0,57.0,30.15,NNW,335,0.0,7.0,97,0.00,,,0.00,,2013-01-04 07:02:00,
2013-01-04 02:12:00,58.0,57.0,30.15,NNW,335,0.0,7.0,97,0.00,,,0.00,,2013-01-04 07:12:00,
2013-01-04 02:22:00,58.0,57.0,30.16,NE,48,0.0,5.0,97,0.00,,,0.00,,2013-01-04 07:22:00,
2013-01-04 02:32:00,58.0,57.0,30.16,NNW,344,1.0,3.0,97,0.00,,,0.00,,2013-01-04 07:32:00,
2013-01-04 02:42:00,58.0,57.0,30.16,NNW,344,1.0,3.0,97,0.00,,,0.00,,2013-01-04 07:42:00,
2013-01-04 02:52:00,57.0,56.0,30.15,NNW,327,0.0,4.0,97,0.00,,,0.00,,2013-01-04 07:52:00,
2013-01-04 03:02:00,57.0,56.0,30.15,NE,53,4.0,11.0,97,0.00,,,0.00,,2013-01-04 08:02:00,
2013-01-04 03:12:00,57.0,56.0,30.15,NE,53,4.0,11.0,97,0.00,,,0.00,,2013-01-04 08:12:00,
2013-01-04 03:22:00,57.0,56.0,30.15,NE,38,2.0,7.0,97,0.00,,,0.00,,2013-01-04 08:22:00,
2013-01-04 03:32:00,57.0,56.0,30.15,NE,42,0.0,5.0,97,0.00,,,0.00,,2013-01-04 08:32:00,
2013-01-04 03:42:00,57.0,56.0,30.15,NE,42,0.0,5.0,97,0.00,,,0.00,,2013-01-04 08:42:00,
2013-01-04 03:53:00,57.0,56.0,30.15,North,5,2.0,4.0,97,0.00,,,0.00,,2013-01-04 08:53:00,
2013-01-04 04:02:00,57.0,56.0,30.15,NE,36,0.0,5.0,97,0.00,,,0.00,,2013-01-04 09:02:00,